Location: Newark
(9.4667°S, 159.8167°E)
Time: 19:14:03
(UTC+00:00)

Explorer 7 - Pass Details

Date: 21 November 2019
Orbit: 485 x 680 km, 50.3° (Epoch: 13 December)

Event Time Altitude Azimuth Distance (km) Brightness Sun altitude
Rises 10:09:50 0° 249° (WSW) 3,013 11.5 -37.5°
Reaches altitude 10° 10:13:13 10° 273° (W) 2,108 10.3 -38.2°
Enters shadow 10:13:34 11° 277° (W) 2,043 10.1 -38.3°
